Erie, CO

7:41 PM MDT on March 30, 2017 (GMT -0600)
Erie Municipal Airport

Weather History for KEIK - December, 2012

Change the Weather History Date:

Friday, December 14, 2012

  Actual Average (KBJC) Record (KBJC)
Temperature  
Mean Temperature 30 °F -  
Max Temperature 43 °F 43 °F 64 °F (2006)
Min Temperature 17 °F 23 °F -5 °F (2008)
Degree Days  
Heating Degree Days 35    
Moisture  
Dew Point 17 °F    
Average Humidity 64    
Maximum Humidity 85    
Minimum Humidity 30    
Precipitation  
Precipitation 0.00 in - - ()
Sea Level Pressure  
Sea Level Pressure 29.65 in    
Wind  
Wind Speed 1 mph (SSE)    
Max Wind Speed 7 mph    
Max Gust Speed -    
Visibility 10 miles    
Events      
Averages and records for this station are not official NWS values.
T = Trace of Precipitation, MM = Missing Value Source: NWS Daily Summary

Daily Weather History Graph

Daily Weather History Graph

Search for Another Location

Airport or City:

Trip Planner

Search our weather history database for the weather conditions in past years. The results will help you decide how hot, cold, wet, or windy it might be!

Date:

Astronomy

Dec. 14, 2012 Rise Set
Actual Time 7:14 AM MST 4:35 PM MST
Civil Twilight 6:44 AM MST 5:06 PM MST
Nautical Twilight 6:10 AM MST 5:40 PM MST
Astronomical Twilight 5:37 AM MST 6:13 PM MST
Moon 8:21 AM MST (12/14) 6:31 PM MST (12/14)
Length of Visible Light 10h 22m
Length of Day
9h 21m
Waxing Crescent, 3% of the Moon is Illuminated
Dec 14
Waxing Crescent
Dec 19
First Quarter
Dec 28
Full
Jan 4
Last Quarter
Jan 11
New

Hourly Weather History & Observations

Time (MST) Temp. Windchill Dew Point Humidity Pressure Visibility Wind Dir Wind Speed Gust Speed Precip Events Conditions
12:14 AM 21.9 °F 17.2 °F 16.0 °F 78% 29.86 in 10.0 mi SW 3.5 mph - N/A   Clear
12:34 AM 19.8 °F - 15.3 °F 83% 29.85 in 10.0 mi Calm Calm - N/A   Clear
12:54 AM 19.0 °F - 14.4 °F 82% 29.85 in 10.0 mi Calm Calm - N/A   Clear
1:14 AM 17.6 °F - 13.8 °F 85% 29.84 in 10.0 mi Calm Calm - N/A   Clear
1:34 AM 18.7 °F 11.9 °F 14.4 °F 83% 29.85 in 10.0 mi SSW 4.6 mph - N/A   Clear
1:54 AM 18.9 °F - 14.7 °F 84% 29.84 in 10.0 mi Calm Calm - N/A   Clear
2:14 AM 19.0 °F - 14.9 °F 84% 29.84 in 10.0 mi Calm Calm - N/A   Clear
2:34 AM 19.0 °F - 15.3 °F 85% 29.85 in 10.0 mi Calm Calm - N/A   Clear
2:54 AM 19.8 °F - 15.3 °F 83% 29.84 in 10.0 mi Calm Calm - N/A   Clear
3:14 AM 20.3 °F 13.8 °F 15.8 °F 83% 29.84 in 10.0 mi South 4.6 mph - N/A   Clear
3:54 AM 22.5 °F - 16.7 °F 79% 29.82 in 10.0 mi Calm Calm - N/A   Clear
4:14 AM 22.5 °F - 17.8 °F 82% 29.81 in 10.0 mi Calm Calm - N/A   Clear
4:34 AM 22.3 °F 17.6 °F 17.8 °F 83% 29.80 in 10.0 mi SSW 3.5 mph - N/A   Clear
4:54 AM 22.1 °F - 17.2 °F 82% 29.78 in 10.0 mi Calm Calm - N/A   Clear
5:14 AM 23.5 °F - 18.3 °F 80% 29.77 in 10.0 mi Calm Calm - N/A   Clear
5:34 AM 24.8 °F - 18.7 °F 78% 29.77 in 10.0 mi Calm Calm - N/A   Clear
5:54 AM 25.7 °F - 19.0 °F 76% 29.77 in 10.0 mi Calm Calm - N/A   Clear
6:14 AM 26.6 °F - 19.0 °F 73% 29.77 in 10.0 mi Calm Calm - N/A   Clear
6:34 AM 26.6 °F - 19.2 °F 74% 29.76 in 10.0 mi Calm Calm - N/A   Clear
6:54 AM 26.4 °F - 19.9 °F 77% 29.76 in 10.0 mi Calm Calm - N/A   Clear
7:14 AM 26.4 °F - 21.0 °F 80% 29.74 in 10.0 mi Calm Calm - N/A   Clear
7:34 AM 27.3 °F - 21.4 °F 78% 29.74 in 10.0 mi Calm Calm - N/A   Scattered Clouds
7:54 AM 27.7 °F - 21.7 °F 78% 29.73 in 10.0 mi Calm Calm - N/A   Overcast
8:14 AM 28.6 °F - 22.6 °F 78% 29.72 in 10.0 mi Calm Calm - N/A   Mostly Cloudy
8:34 AM 29.8 °F - 23.5 °F 77% 29.72 in 10.0 mi Calm Calm - N/A   Scattered Clouds
8:54 AM 31.1 °F - 23.2 °F 72% 29.72 in 10.0 mi Calm Calm - N/A   Scattered Clouds
9:14 AM 32.0 °F - 22.3 °F 67% 29.72 in 10.0 mi Calm Calm - N/A   Scattered Clouds
9:34 AM 32.9 °F - 19.0 °F 57% 29.70 in 10.0 mi Calm Calm - N/A   Clear
9:54 AM 33.6 °F - 16.3 °F 49% 29.69 in 10.0 mi Calm Calm - N/A   Scattered Clouds
10:14 AM 34.5 °F 30.4 °F 18.1 °F 51% 29.69 in 10.0 mi SSE 4.6 mph - N/A   Scattered Clouds
10:34 AM 36.3 °F 33.7 °F 19.2 °F 50% 29.69 in 10.0 mi SSE 3.5 mph - N/A   Mostly Cloudy
10:54 AM 37.8 °F - 19.4 °F 48% 29.68 in 10.0 mi Calm Calm - N/A   Overcast
11:14 AM 39.2 °F 35.9 °F 17.4 °F 41% 29.67 in 10.0 mi South 4.6 mph - N/A   Overcast
11:34 AM 40.5 °F - 15.8 °F 37% 29.64 in 10.0 mi Calm Calm - N/A   Overcast
11:54 AM 41.9 °F 40.0 °F 13.5 °F 32% 29.62 in 10.0 mi ESE 3.5 mph - N/A   Overcast
12:14 PM 43.0 °F - 14.0 °F 31% 29.60 in 10.0 mi Calm Calm - N/A   Scattered Clouds
12:34 PM 43.0 °F - 13.5 °F 30% 29.58 in 10.0 mi Calm Calm - N/A   Clear
12:54 PM 43.2 °F - 14.2 °F 31% 29.57 in 10.0 mi Calm Calm - N/A   Clear
1:14 PM 43.2 °F - 14.2 °F 31% 29.54 in 10.0 mi Calm Calm - N/A   Clear
1:34 PM 43.7 °F - 14.2 °F 30% 29.53 in 10.0 mi Calm Calm - N/A   Clear
1:54 PM 43.7 °F 41.1 °F 14.7 °F 31% 29.51 in 10.0 mi NNW 4.6 mph - N/A   Clear
2:14 PM 43.2 °F 41.5 °F 15.1 °F 32% 29.52 in 10.0 mi NNE 3.5 mph - N/A   Clear
2:34 PM 42.8 °F 40.1 °F 15.1 °F 33% 29.51 in 10.0 mi NE 4.6 mph - N/A   Clear
2:54 PM 42.8 °F - 14.5 °F 32% 29.50 in 10.0 mi Calm Calm - N/A   Clear
3:14 PM 42.1 °F 39.2 °F 14.9 °F 33% 29.50 in 10.0 mi NNE 4.6 mph - N/A   Clear
3:34 PM 40.6 °F 36.7 °F 17.1 °F 39% 29.50 in 10.0 mi NNE 5.8 mph - N/A   Clear
3:54 PM 39.4 °F 34.5 °F 17.2 °F 41% 29.50 in 10.0 mi ENE 6.9 mph - N/A   Clear
4:14 PM 38.5 °F 35.0 °F 17.6 °F 43% 29.51 in 10.0 mi East 4.6 mph - N/A   Clear
4:34 PM 36.3 °F 33.7 °F 19.0 °F 50% 29.51 in 10.0 mi East 3.5 mph - N/A   Clear
4:54 PM 33.1 °F 30.0 °F 18.9 °F 56% 29.51 in 10.0 mi SW 3.5 mph - N/A   Clear
5:14 PM 29.3 °F 25.6 °F 17.4 °F 61% 29.51 in 10.0 mi West 3.5 mph - N/A   Clear
5:34 PM 28.0 °F - 16.5 °F 62% 29.52 in 10.0 mi Calm Calm - N/A   Clear
5:54 PM 28.6 °F - 17.6 °F 64% 29.52 in 10.0 mi Calm Calm - N/A   Clear
6:14 PM 29.3 °F 25.6 °F 17.4 °F 61% 29.52 in 10.0 mi NW 3.5 mph - N/A   Clear
6:34 PM 28.6 °F - 17.2 °F 63% 29.52 in 10.0 mi Calm Calm - N/A   Clear
6:54 PM 27.5 °F - 17.4 °F 66% 29.52 in 10.0 mi Calm Calm - N/A   Clear
7:14 PM 25.5 °F - 16.5 °F 69% 29.52 in 10.0 mi Calm Calm - N/A   Clear
7:34 PM 27.1 °F 23.2 °F 16.5 °F 64% 29.53 in 10.0 mi ESE 3.5 mph - N/A   Clear
7:54 PM 25.3 °F - 17.1 °F 71% 29.53 in 10.0 mi Calm Calm - N/A   Clear
8:14 PM 24.4 °F - 16.7 °F 72% 29.55 in 10.0 mi Calm Calm - N/A   Clear
8:34 PM 22.6 °F - 15.8 °F 75% 29.54 in 10.0 mi Calm Calm - N/A   Clear
8:54 PM 23.5 °F 19.1 °F 16.7 °F 75% 29.55 in 10.0 mi SSE 3.5 mph - N/A   Clear
9:14 PM 24.8 °F 19.1 °F 16.9 °F 72% 29.58 in 10.0 mi SW 4.6 mph - N/A   Clear
9:34 PM 24.1 °F - 16.5 °F 73% 29.58 in 10.0 mi Calm Calm - N/A   Clear
9:54 PM 23.4 °F - 16.5 °F 75% 29.58 in 10.0 mi Calm Calm - N/A   Clear
10:14 PM 23.7 °F - 16.7 °F 75% 29.58 in 10.0 mi Calm Calm - N/A   Clear
10:34 PM 23.9 °F 16.8 °F 16.5 °F 73% 29.59 in 10.0 mi SSW 5.8 mph - N/A   Clear
10:54 PM 22.5 °F - 16.2 °F 77% 29.59 in 10.0 mi Calm Calm - N/A   Clear
11:14 PM 23.9 °F - 16.7 °F 74% 29.60 in 10.0 mi Calm Calm - N/A   Clear
11:34 PM 24.4 °F 20.1 °F 17.2 °F 74% 29.60 in 10.0 mi South 3.5 mph - N/A   Scattered Clouds
11:54 PM 25.3 °F - 17.1 °F 71% 29.60 in 10.0 mi Calm Calm - N/A   Clear